GW5836 Weather Reports


time (UTC)temp
C
wind
direction
speed
KPH
gust
KPH
rain 1hr
cm
rain 24hr
cm
rain mn
cm
humidity
%
barometer
mb
20260504215043 23 218 3.2 4.8 0.00 0.00 0.00 35 1010.5
20260504214539 23 113 1.6 1.6 0.00 0.00 0.00 35 1010.7
20260504214036 23 183 0.0 1.6 0.00 0.00 0.00 34 1010.8
20260504213532 23 168 1.6 1.6 0.00 0.00 0.00 35 1010.8
20260504213029 23 150 0.0 0.0 0.00 0.00 0.00 36 1010.8
20260504212525 23 127 1.6 3.2 0.00 0.00 0.00 35 1010.7
20260504212023 23 29 1.6 1.6 0.00 0.00 0.00 34 1010.8
20260504211520 23 325 3.2 4.8 0.00 0.00 0.00 35 1010.9
20260504211017 23 338 1.6 1.6 0.00 0.00 0.00 36 1010.8
20260504210514 23 234 6.4 6.4 0.00 0.00 0.00 34 1010.8
20260504210010 23 43 1.6 1.6 0.00 0.00 0.00 35 1010.9
20260504205508 24 253 1.6 1.6 0.00 0.00 0.00 35 1010.9
20260504205006 24 184 3.2 3.2 0.00 0.00 0.00 34 1010.8
20260504204504 24 190 1.6 1.6 0.00 0.00 0.00 36 1011.0
20260504204003 24 17 0.0 1.6 0.00 0.00 0.00 34 1011.0
20260504203500 24 223 3.2 3.2 0.00 0.00 0.00 35 1011.1
20260504202956 23 305 1.6 1.6 0.00 0.00 0.00 34 1011.0
20260504202452 24 193 6.4 6.4 0.00 0.00 0.00 35 1011.2
20260504201949 23 300 3.2 4.8 0.00 0.00 0.00 34 1011.1
20260504201447 23 265 3.2 4.8 0.00 0.00 0.00 36 1011.3
20260504200944 23 44 3.2 3.2 0.00 0.00 0.00 37 1011.2
20260504200441 23 241 1.6 1.6 0.00 0.00 0.00 34 1011.4
20260504195937 23 74 0.0 1.6 0.00 0.00 0.00 36 1011.3
20260504195433 24 264 1.6 1.6 0.00 0.00 0.00 34 1011.6
20260504194930 24 290 1.6 3.2 0.00 0.00 0.00 33 1011.6
20260504194426 24 4 0.0 0.0 0.00 0.00 0.00 34 1011.6
20260504193922 24 139 4.8 4.8 0.00 0.00 0.00 33 1011.7
20260504193420 25 68 1.6 1.6 0.00 0.00 0.00 36 1012.0
20260504192918 25 259 1.6 3.2 0.00 0.00 0.00 34 1012.0
20260504192415 25 10 1.6 1.6 0.00 0.00 0.00 35 1012.1
20260504191914 25 123 0.0 0.0 0.00 0.00 0.00 35 1012.1
20260504191411 25 99 1.6 1.6 0.00 0.00 0.00 35 1012.2
20260504190906 25 80 1.6 3.2 0.00 0.00 0.00 35 1012.2
20260504190403 25 116 0.0 0.0 0.00 0.00 0.00 37 1012.3
20260504185859 25 204 1.6 3.2 0.00 0.00 0.00 38 1012.5
20260504185357 25 208 0.0 1.6 0.00 0.00 0.00 34 1012.6
20260504184852 24 142 1.6 3.2 0.00 0.00 0.00 35 1012.4
20260504184348 24 222 1.6 3.2 0.00 0.00 0.00 33 1012.8
20260504183844 25 275 1.6 3.2 0.00 0.00 0.00 36 1012.9
20260504183342 25 165 1.6 1.6 0.00 0.00 0.00 32 1012.9
20260504182839 25 275 0.0 0.0 0.00 0.00 0.00 35 1012.7
20260504182337 25 169 1.6 1.6 0.00 0.00 0.00 35 1012.7
20260504181833 24 184 4.8 6.4 0.00 0.00 0.00 34 1012.9
20260504181331 24 328 3.2 3.2 0.00 0.00 0.00 31 1012.9
20260504180830 24 110 0.0 1.6 0.00 0.00 0.00 31 1013.1
20260504180328 24 273 0.0 1.6 0.00 0.00 0.00 32 1013.1
20260504175826 24 152 1.6 1.6 0.00 0.00 0.00 33 1013.1
20260504175322 24 128 0.0 1.6 0.00 0.00 0.00 38 1013.3
20260504174821 23 330 1.6 1.6 0.00 0.00 0.00 34 1013.4
20260504174318 24 265 0.0 1.6 0.00 0.00 0.00 31 1013.1
20260504173814 23 299 0.0 0.0 0.00 0.00 0.00 32 1013.2
20260504173311 23 348 3.2 3.2 0.00 0.00 0.00 33 1013.3
20260504172808 24 193 1.6 1.6 0.00 0.00 0.00 36 1013.5
20260504172305 23 208 3.2 3.2 0.00 0.00 0.00 35 1013.6
20260504171800 23 79 1.6 1.6 0.00 0.00 0.00 33 1013.7
20260504171258 23 338 0.0 0.0 0.00 0.00 0.00 36 1013.6
20260504170755 24 211 3.2 4.8 0.00 0.00 0.00 34 1013.8
20260504170252 23 244 0.0 1.6 0.00 0.00 0.00 32 1013.6
20260504160210 22 217 1.6 3.2 0.00 0.00 0.00 35 1014.7
20260504151138 21 207 1.6 1.6 0.00 0.00 0.00 38 1015.1
20260504150636 21 359 0.0 0.0 0.00 0.00 0.00 35 1015.1
20260504150132 21 255 0.0 0.0 0.00 0.00 0.00 36 1015.1
20260504141101 20 351 0.0 1.6 0.00 0.00 0.00 43 1015.2
20260504140557 19 57 0.0 0.0 0.00 0.00 0.00 45 1015.5
20260504130522 16 267 3.2 3.2 0.00 0.00 0.00 49 1015.7
20260504110409 8 119 0.0 0.0 0.00 0.00 0.00 76 1016.1
20260504100326 8 46 0.0 0.0 0.00 0.00 0.00 71 1016.3
20260504081720 8 18 0.0 0.0 0.00 0.00 0.00 70 1016.5
20260504081216 8 18 0.0 0.0 0.00 0.00 0.00 69 1016.8
20260504080712 7 29 0.0 0.0 0.00 0.00 0.00 70 1016.5
20260504080209 7 55 0.0 0.0 0.00 0.00 0.00 70 1016.6
20260504070137 8 99 0.0 0.0 0.00 0.00 0.00 65 1016.7
20260504050525 6 86 0.0 0.0 0.00 0.00 0.00 71 1016.6
20260504050022 6 86 0.0 0.0 0.00 0.00 0.00 70 1016.7
20260504045519 6 86 0.0 0.0 0.00 0.00 0.00 69 1016.7
20260504045014 6 83 0.0 0.0 0.00 0.00 0.00 69 1016.8
20260504044512 6 83 0.0 0.0 0.00 0.00 0.00 68 1016.7
20260504044009 6 86 0.0 0.0 0.00 0.00 0.00 69 1016.8
20260504043506 6 86 0.0 0.0 0.00 0.00 0.00 70 1017.0
20260504043004 6 86 0.0 0.0 0.00 0.00 0.00 68 1017.0
20260504042500 6 116 0.0 0.0 0.00 0.00 0.00 68 1016.7
20260504041957 6 114 0.0 0.0 0.00 0.00 0.00 68 1016.8
20260504041453 6 89 0.0 0.0 0.00 0.00 0.00 69 1016.7
20260504040949 6 83 0.0 0.0 0.00 0.00 0.00 71 1016.8
20260504040447 6 83 0.0 0.0 0.00 0.00 0.00 73 1016.8
20260504035943 5 74 0.0 0.0 0.00 0.00 0.00 76 1016.7
20260504035441 5 79 0.0 0.0 0.00 0.00 0.00 77 1016.8
20260504034937 5 113 0.0 0.0 0.00 0.00 0.00 77 1016.7
20260504034434 5 31 0.0 0.0 0.00 0.00 0.00 78 1016.6
20260504033931 5 40 0.0 0.0 0.00 0.00 0.00 79 1016.5
20260504033429 5 55 0.0 0.0 0.00 0.00 0.00 80 1016.4
20260504032926 5 59 0.0 0.0 0.00 0.00 0.00 80 1016.5
20260504032423 5 68 0.0 0.0 0.00 0.00 0.00 78 1016.4
20260504031919 5 68 0.0 0.0 0.00 0.00 0.00 78 1016.4
20260504031417 5 69 0.0 0.0 0.00 0.00 0.00 78 1016.4
20260504030913 5 82 0.0 0.0 0.00 0.00 0.00 77 1016.3
20260504030410 5 80 0.0 0.0 0.00 0.00 0.00 77 1016.1
20260504025906 6 11 0.0 1.6 0.00 0.00 0.00 77 1016.1
20260504025403 5 23 0.0 0.0 0.00 0.00 0.00 77 1016.3
20260504024900 6 75 0.0 0.0 0.00 0.00 0.00 77 1016.2
20260504024356 6 97 0.0 0.0 0.00 0.00 0.00 76 1016.2
20260504023854 6 46 0.0 0.0 0.00 0.00 0.00 76 1016.3
20260504023350 6 48 0.0 0.0 0.00 0.00 0.00 75 1016.3
20260504022845 6 51 0.0 0.0 0.00 0.00 0.00 74 1016.2
20260504022343 6 51 0.0 0.0 0.00 0.00 0.00 73 1016.2
20260504021839 6 51 0.0 0.0 0.00 0.00 0.00 73 1016.1
20260504021337 6 58 0.0 0.0 0.00 0.00 0.00 73 1016.3
20260504020833 6 60 0.0 0.0 0.00 0.00 0.00 72 1016.3
20260504020330 6 61 0.0 0.0 0.00 0.00 0.00 70 1016.1
20260504015826 6 61 0.0 0.0 0.00 0.00 0.00 70 1016.2
20260504015322 7 47 0.0 0.0 0.00 0.00 0.00 70 1016.1
20260504014819 7 47 0.0 0.0 0.00 0.00 0.00 69 1016.1
20260504014315 7 47 0.0 0.0 0.00 0.00 0.00 68 1016.2
20260504013813 7 48 0.0 0.0 0.00 0.00 0.00 68 1016.1
20260504013310 7 56 0.0 0.0 0.00 0.00 0.00 66 1016.0
20260504012807 7 57 0.0 0.0 0.00 0.00 0.00 65 1016.1
20260504012305 7 57 0.0 0.0 0.00 0.00 0.00 65 1016.0
20260504011802 7 57 0.0 0.0 0.00 0.00 0.00 65 1015.8
20260504011258 8 57 0.0 0.0 0.00 0.00 0.00 64 1015.7
20260504010754 8 58 0.0 0.0 0.00 0.00 0.00 62 1015.8
20260504010250 8 58 0.0 0.0 0.00 0.00 0.00 60 1015.7
20260504005747 8 58 0.0 0.0 0.00 0.00 0.00 59 1015.9
20260504005244 8 58 0.0 0.0 0.00 0.00 0.00 60 1015.7
20260504004741 8 58 0.0 0.0 0.00 0.00 0.00 58 1015.7
20260504004239 9 60 0.0 0.0 0.00 0.00 0.00 57 1015.6
20260504003735 9 60 0.0 0.0 0.00 0.00 0.00 55 1015.6
20260504003232 10 60 0.0 0.0 0.00 0.00 0.00 53 1015.8
20260504002728 10 60 0.0 0.0 0.00 0.00 0.00 52 1015.7
20260504002225 10 61 0.0 0.0 0.00 0.00 0.00 51 1015.4
20260504001723 11 68 0.0 0.0 0.00 0.00 0.00 49 1015.3
20260504001220 11 69 0.0 0.0 0.00 0.00 0.00 47 1015.4
20260504000717 11 69 0.0 0.0 0.00 0.00 0.00 45 1015.3
20260504000214 12 69 0.0 0.0 0.00 0.00 0.00 47 1015.1
20260503235712 12 72 0.0 0.0 0.00 0.00 0.00 42 1015.4
20260503235209 13 26 0.0 0.0 0.00 0.00 0.00 40 1015.3
20260503234706 13 27 0.0 0.0 0.00 0.00 0.00 38 1015.2
20260503234205 13 26 0.0 0.0 0.00 0.00 0.00 37 1015.2
20260503233701 13 26 0.0 0.0 0.00 0.00 0.00 36 1015.3
20260503233157 13 78 0.0 0.0 0.00 0.00 0.00 37 1014.8
20260503232654 14 101 0.0 0.0 0.00 0.00 0.00 38 1015.1
20260503232151 14 7 0.0 0.0 0.00 0.00 0.00 39 1015.0
20260503231649 14 102 0.0 0.0 0.00 0.00 0.00 37 1015.0
20260503231145 15 126 0.0 0.0 0.00 0.00 0.00 38 1014.7
20260503230642 15 83 0.0 0.0 0.00 0.00 0.00 36 1014.9
20260503230139 15 63 0.0 0.0 0.00 0.00 0.00 34 1014.8
20260503225637 15 344 1.6 1.6 0.00 0.00 0.00 33 1015.0
20260503225136 15 8 0.0 1.6 0.00 0.00 0.00 36 1014.9
20260503224634 15 280 1.6 1.6 0.00 0.00 0.00 34 1015.0
20260503224132 15 340 1.6 1.6 0.00 0.00 0.00 33 1014.9
20260503223630 15 359 0.0 1.6 0.00 0.00 0.00 33 1014.9
20260503223125 15 124 0.0 0.0 0.00 0.00 0.00 33 1015.1
20260503222623 16 307 0.0 1.6 0.00 0.00 0.00 31 1015.1
20260503222121 16 327 0.0 0.0 0.00 0.00 0.00 31 1014.9
20260503221619 16 75 1.6 1.6 0.00 0.00 0.00 31 1014.7
20260503221116 16 249 1.6 1.6 0.00 0.00 0.00 30 1015.0
20260503220613 16 254 1.6 3.2 0.00 0.00 0.00 32 1014.9
20260503220109 16 264 1.6 3.2 0.00 0.00 0.00 30 1015.1
20260503215606 16 307 3.2 3.2 0.00 0.00 0.00 32 1014.9